Kremmling, CO

9:42 PM MDT on April 30, 2017 (GMT -0600)
Kremmling

Weather History for K20V - November, 2013

Change the Weather History Date:

Tuesday, November 26, 2013

  Actual Average Record
Temperature  
Mean Temperature 26 °F -  
Max Temperature 41 °F - 46 °F (2012)
Min Temperature 12 °F - 0 °F (2008)
Degree Days  
Heating Degree Days 38    
Month to date heating degree days  
Cooling Degree Days 0    
Month to date cooling degree days  
Moisture  
Dew Point 15 °F    
Average Humidity 74    
Maximum Humidity 93    
Minimum Humidity 36    
Precipitation  
Precipitation 0.00 in - 0.21 in (2006)
Sea Level Pressure  
Sea Level Pressure 30.40 in    
Wind  
Wind Speed 0 mph (WSW)    
Max Wind Speed 5 mph    
Max Gust Speed -    
Visibility 10 miles    
Events      
T = Trace of Precipitation, MM = Missing Value Source: NWS Daily Summary

Daily Weather History Graph

Daily Weather History Graph

Search for Another Location

Airport or City:

Trip Planner

Search our weather history database for the weather conditions in past years. The results will help you decide how hot, cold, wet, or windy it might be!

Date:

Astronomy

Nov. 26, 2013 Rise Set
Actual Time 7:03 AM MST 4:42 PM MST
Civil Twilight 6:33 AM MST 5:11 PM MST
Nautical Twilight 6:00 AM MST 5:45 PM MST
Astronomical Twilight 5:27 AM MST 6:17 PM MST
Moon 12:09 AM MST (11/26) 12:50 PM MST (11/26)
Length of Visible Light 10h 38m
Length of Day
9h 38m
Last Quarter, 40% of the Moon is Illuminated
Nov 26
Last Quarter
Dec 2
New
Dec 9
First Quarter
Dec 17
Full
Dec 25
Last Quarter

Hourly Weather History & Observations

Time (MST) Temp. Windchill Dew Point Humidity Pressure Visibility Wind Dir Wind Speed Gust Speed Precip Events Conditions
12:15 AM 19.4 °F - 17.6 °F 93% 30.35 in 10.0 mi Calm Calm - N/A   Clear
12:35 AM 19.4 °F - 17.6 °F 93% 30.36 in 10.0 mi Calm Calm - N/A   Clear
12:55 AM 17.6 °F - 14.0 °F 86% 30.37 in 10.0 mi Calm Calm - N/A   Clear
1:15 AM 17.6 °F - 14.0 °F 86% 30.37 in 10.0 mi Calm Calm - N/A   Clear
1:35 AM 17.6 °F - 14.0 °F 86% 30.37 in 10.0 mi Calm Calm - N/A   Clear
1:55 AM 17.6 °F - 14.0 °F 86% 30.38 in 10.0 mi Calm Calm - N/A   Clear
2:15 AM 17.6 °F - 14.0 °F 86% 30.39 in 10.0 mi Calm Calm - N/A   Scattered Clouds
2:35 AM 17.6 °F - 14.0 °F 86% 30.39 in 10.0 mi Calm Calm - N/A   Scattered Clouds
2:55 AM 17.6 °F - 14.0 °F 86% 30.39 in 10.0 mi Calm Calm - N/A   Mostly Cloudy
3:15 AM 17.6 °F - 12.2 °F 79% 30.40 in 10.0 mi Calm Calm - N/A   Scattered Clouds
3:35 AM 15.8 °F - 12.2 °F 86% 30.40 in 10.0 mi Calm Calm - N/A   Clear
3:54 AM 14.0 °F - 12.2 °F 93% 30.41 in 10.0 mi Calm Calm - N/A   Clear
4:15 AM 14.0 °F - 12.2 °F 93% 30.41 in 7.0 mi Calm Calm - N/A   Clear
4:35 AM 14.0 °F - 12.2 °F 93% 30.42 in 7.0 mi Calm Calm - N/A   Clear
4:55 AM 12.2 °F - 10.4 °F 92% 30.42 in 10.0 mi Calm Calm - N/A   Clear
5:15 AM 12.2 °F - 10.4 °F 92% 30.43 in 10.0 mi Calm Calm - N/A   Clear
5:34 AM 14.0 °F - 10.4 °F 86% 30.43 in 10.0 mi Calm Calm - N/A   Clear
5:55 AM 12.2 °F - 10.4 °F 92% 30.43 in 10.0 mi Calm Calm - N/A   Clear
6:15 AM 12.2 °F - 10.4 °F 92% 30.44 in 10.0 mi Calm Calm - N/A   Clear
6:35 AM 12.2 °F - 10.4 °F 92% 30.45 in 10.0 mi Calm Calm - N/A   Clear
6:55 AM 12.2 °F - 10.4 °F 92% 30.45 in 10.0 mi Calm Calm - N/A   Clear
7:15 AM 12.2 °F - 10.4 °F 92% 30.45 in 7.0 mi Calm Calm - N/A   Clear
7:35 AM 14.0 °F - 10.4 °F 86% 30.45 in 10.0 mi Calm Calm - N/A   Clear
7:55 AM 14.0 °F 8.2 °F 12.2 °F 93% 30.46 in 10.0 mi SSW 3.5 mph - N/A   Clear
8:15 AM 15.8 °F - 12.2 °F 86% 30.47 in 10.0 mi Calm Calm - N/A   Clear
8:35 AM 17.6 °F - 14.0 °F 86% 30.47 in 10.0 mi Calm Calm - N/A   Clear
8:55 AM 19.4 °F - 15.8 °F 86% 30.47 in 10.0 mi Calm Calm - N/A   Clear
9:14 AM 21.2 °F - 15.8 °F 80% 30.47 in 10.0 mi Calm Calm - N/A   Clear
9:35 AM 23.0 °F - 17.6 °F 80% 30.47 in 10.0 mi Calm Calm - N/A   Clear
9:55 AM 23.0 °F - 17.6 °F 80% 30.47 in 10.0 mi Calm Calm - N/A   Clear
10:15 AM 26.6 °F - 17.6 °F 69% 30.46 in 10.0 mi Calm Calm - N/A   Clear
10:34 AM 28.4 °F - 19.4 °F 69% 30.45 in 10.0 mi Calm Calm - N/A   Clear
10:54 AM 30.2 °F - 19.4 °F 64% 30.44 in 10.0 mi Calm Calm - N/A   Clear
11:15 AM 32.0 °F - 17.6 °F 55% 30.43 in 10.0 mi Calm Calm - N/A   Clear
11:35 AM 33.8 °F - 19.4 °F 56% 30.41 in 10.0 mi Calm Calm - N/A   Clear
11:55 AM 33.8 °F 30.8 °F 19.4 °F 56% 30.41 in 10.0 mi WSW 3.5 mph - N/A   Clear
12:15 PM 33.8 °F - 19.4 °F 56% 30.39 in 10.0 mi Calm Calm - N/A   Clear
12:34 PM 35.6 °F - 19.4 °F 52% 30.39 in 10.0 mi Calm Calm - N/A   Clear
12:55 PM 35.6 °F - 19.4 °F 52% 30.38 in 10.0 mi Calm Calm - N/A   Clear
1:15 PM 37.4 °F - 19.4 °F 48% 30.37 in 10.0 mi Calm Calm - N/A   Clear
1:35 PM 37.4 °F 34.9 °F 19.4 °F 48% 30.36 in 10.0 mi West 3.5 mph - N/A   Clear
1:55 PM 37.4 °F - 19.4 °F 48% 30.36 in 10.0 mi Calm Calm - N/A   Clear
2:15 PM 39.2 °F - 19.4 °F 45% 30.36 in 10.0 mi Calm Calm - N/A   Clear
2:35 PM 41.0 °F 39.0 °F 17.6 °F 39% 30.36 in 10.0 mi West 3.5 mph - N/A   Clear
2:55 PM 41.0 °F 38.0 °F 17.6 °F 39% 30.36 in 10.0 mi West 4.6 mph - N/A   Clear
3:15 PM 41.0 °F - 17.6 °F 39% 30.36 in 10.0 mi Calm Calm - N/A   Clear
3:35 PM 41.0 °F 39.0 °F 15.8 °F 36% 30.36 in 10.0 mi West 3.5 mph - N/A   Clear
3:55 PM 41.0 °F - 17.6 °F 39% 30.35 in 10.0 mi Calm Calm - N/A   Clear
4:15 PM 37.4 °F 34.9 °F 17.6 °F 45% 30.35 in 10.0 mi WSW 3.5 mph - N/A   Clear
4:35 PM 33.8 °F - 19.4 °F 56% 30.35 in 10.0 mi Calm Calm - N/A   Clear
4:55 PM 33.8 °F 29.6 °F 19.4 °F 56% 30.36 in 10.0 mi NNW 4.6 mph - N/A   Clear
5:14 PM 32.0 °F - 17.6 °F 55% 30.36 in 10.0 mi Calm Calm - N/A   Clear
5:35 PM 28.4 °F - 19.4 °F 69% 30.36 in 10.0 mi Calm Calm - N/A   Clear
5:55 PM 28.4 °F - 19.4 °F 69% 30.37 in 10.0 mi Calm Calm - N/A   Clear
6:15 PM 30.2 °F - 19.4 °F 64% 30.37 in 10.0 mi Calm Calm - N/A   Clear
6:35 PM 28.4 °F - 17.6 °F 64% 30.37 in 10.0 mi Calm Calm - N/A   Clear
6:55 PM 26.6 °F 22.6 °F 17.6 °F 69% 30.37 in 10.0 mi East 3.5 mph - N/A   Clear
7:15 PM 23.0 °F - 15.8 °F 74% 30.38 in 10.0 mi Calm Calm - N/A   Clear
7:35 PM 23.0 °F - 17.6 °F 80% 30.38 in 10.0 mi Calm Calm - N/A   Clear
7:55 PM 21.2 °F 16.4 °F 15.8 °F 80% 30.39 in 10.0 mi East 3.5 mph - N/A   Clear
8:15 PM 19.4 °F - 14.0 °F 80% 30.39 in 10.0 mi Calm Calm - N/A   Clear
8:35 PM 21.2 °F - 14.0 °F 74% 30.39 in 10.0 mi Calm Calm - N/A   Clear
8:55 PM 21.2 °F - 15.8 °F 80% 30.39 in 10.0 mi Calm Calm - N/A   Clear
9:15 PM 21.2 °F - 14.0 °F 74% 30.39 in 10.0 mi Calm Calm - N/A   Clear
9:35 PM 19.4 °F - 15.8 °F 86% 30.40 in 10.0 mi Calm Calm - N/A   Clear
9:55 PM 19.4 °F - 15.8 °F 86% 30.40 in 10.0 mi Calm Calm - N/A   Clear
10:15 PM 17.6 °F - 14.0 °F 86% 30.40 in 10.0 mi Calm Calm - N/A   Clear
10:35 PM 17.6 °F - 14.0 °F 86% 30.41 in 10.0 mi Calm Calm - N/A   Clear
10:55 PM 17.6 °F - 14.0 °F 86% 30.41 in 10.0 mi Calm Calm - N/A   Clear
11:15 PM 17.6 °F - 12.2 °F 79% 30.41 in 10.0 mi Calm Calm - N/A   Clear
11:35 PM 17.6 °F - 14.0 °F 86% 30.41 in 7.0 mi Calm Calm - N/A   Clear
11:55 PM 17.6 °F - 12.2 °F 79% 30.41 in 10.0 mi Calm Calm - N/A   Clear